N3898R KEMV-KLHZ

Flight info

Callsign N3898R
Flight time 0h 36m
Altitude 4000
Route POORK T295 DUFFI V615 ARGAL
Aircraft C172/L-SDE3/L

Departure

Time 2026-05-06 22:42
Airport Emporia Greensville Regional Airport (KEMV)

Arrival

Time 2026-05-06 23:19
Airport Triangle North Executive Airport (KLHZ)
Time Latitude Longitude Altitude Speed Heading
2026-05-06 22:27 36.68263 -77.48267 113 ft 0 kts 360°
2026-05-06 22:35 36.68264 -77.48267 113 ft 0 kts 358°
2026-05-06 22:35 36.68270 -77.48269 113 ft 0 kts 337°
2026-05-06 22:36 36.68279 -77.48296 113 ft 9 kts 285°
2026-05-06 22:36 36.68309 -77.48308 113 ft 13 kts 109°
2026-05-06 22:36 36.68305 -77.48164 115 ft 20 kts 89°
2026-05-06 22:36 36.68372 -77.48134 115 ft 16 kts 323°
2026-05-06 22:37 36.68477 -77.48219 115 ft 21 kts 325°
2026-05-06 22:37 36.68610 -77.48340 118 ft 24 kts 330°
2026-05-06 22:37 36.68757 -77.48460 119 ft 26 kts 323°
2026-05-06 22:37 36.68910 -77.48590 120 ft 27 kts 327°
2026-05-06 22:38 36.69059 -77.48717 122 ft 28 kts 325°
2026-05-06 22:38 36.69196 -77.48825 122 ft 4 kts 24°
2026-05-06 22:41 36.69204 -77.48819 122 ft 9 kts 32°
2026-05-06 22:41 36.69181 -77.48699 122 ft 32 kts 143°
2026-05-06 22:41 36.68861 -77.48422 141 ft 74 kts 150°
2026-05-06 22:42 36.68443 -77.48064 358 ft 75 kts 148°
2026-05-06 22:42 36.68050 -77.47717 586 ft 72 kts 156°
2026-05-06 22:42 36.67632 -77.47446 758 ft 76 kts 156°
2026-05-06 22:42 36.67187 -77.47160 972 ft 74 kts 158°
2026-05-06 22:43 36.66740 -77.46935 1168 ft 72 kts 178°
2026-05-06 22:43 36.66373 -77.47284 1307 ft 82 kts 244°
2026-05-06 22:43 36.66066 -77.47781 1461 ft 81 kts 220°
2026-05-06 22:43 36.65670 -77.48229 1630 ft 81 kts 220°
2026-05-06 22:44 36.65307 -77.48721 1822 ft 80 kts 226°
2026-05-06 22:44 36.64958 -77.49165 2015 ft 78 kts 220°
2026-05-06 22:44 36.64576 -77.49612 2197 ft 77 kts 218°
2026-05-06 22:44 36.64190 -77.50031 2406 ft 73 kts 222°
2026-05-06 22:45 36.63942 -77.50346 2525 ft 74 kts 221°
2026-05-06 22:45 36.63621 -77.50728 2613 ft 80 kts 220°
2026-05-06 22:45 36.63236 -77.51170 2809 ft 77 kts 218°
2026-05-06 22:45 36.62856 -77.51595 2986 ft 76 kts 219°
2026-05-06 22:46 36.62485 -77.52017 3129 ft 78 kts 222°
2026-05-06 22:46 36.62275 -77.52290 3214 ft 79 kts 224°
2026-05-06 22:46 36.62041 -77.52603 3308 ft 79 kts 224°
2026-05-06 22:46 36.61675 -77.53094 3414 ft 83 kts 224°
2026-05-06 22:47 36.61391 -77.53471 3487 ft 85 kts 224°
2026-05-06 22:47 36.61041 -77.53933 3574 ft 87 kts 224°
2026-05-06 22:47 36.60547 -77.54569 3690 ft 89 kts 223°
2026-05-06 22:47 36.60199 -77.55003 3770 ft 89 kts 223°
2026-05-06 22:48 36.59878 -77.55399 3842 ft 90 kts 223°
2026-05-06 22:48 36.59577 -77.55769 3908 ft 90 kts 223°
2026-05-06 22:48 36.59066 -77.56391 4012 ft 91 kts 223°
2026-05-06 22:48 36.58552 -77.57009 4049 ft 92 kts 224°
2026-05-06 22:49 36.58024 -77.57642 4040 ft 89 kts 223°
2026-05-06 22:49 36.57536 -77.58212 4040 ft 88 kts 222°
2026-05-06 22:49 36.57109 -77.58639 4041 ft 88 kts 218°
2026-05-06 22:49 36.56830 -77.58899 4042 ft 90 kts 218°
2026-05-06 22:50 36.56527 -77.59176 4042 ft 91 kts 217°
2026-05-06 22:50 36.56169 -77.59501 4042 ft 93 kts 217°
2026-05-06 22:50 36.55832 -77.59805 4041 ft 93 kts 217°
2026-05-06 22:50 36.55576 -77.60034 4041 ft 94 kts 217°
2026-05-06 22:51 36.55118 -77.60444 4041 ft 94 kts 217°
2026-05-06 22:51 36.54632 -77.60895 4040 ft 95 kts 219°
2026-05-06 22:51 36.54278 -77.61234 4040 ft 95 kts 219°
2026-05-06 22:51 36.53963 -77.61536 4040 ft 95 kts 219°
2026-05-06 22:52 36.53481 -77.61998 4040 ft 95 kts 219°
2026-05-06 22:52 36.53026 -77.62431 4040 ft 95 kts 219°
2026-05-06 22:52 36.52679 -77.62759 4040 ft 95 kts 219°
2026-05-06 22:52 36.52333 -77.63088 4040 ft 95 kts 219°
2026-05-06 22:53 36.51866 -77.63528 4040 ft 95 kts 219°
2026-05-06 22:53 36.51237 -77.64118 4039 ft 95 kts 219°
2026-05-06 22:53 36.50634 -77.64681 4039 ft 95 kts 219°
2026-05-06 22:53 36.50233 -77.65055 4034 ft 96 kts 219°
2026-05-06 22:54 36.49695 -77.65558 4036 ft 97 kts 219°
2026-05-06 22:54 36.49018 -77.66206 4035 ft 98 kts 220°
2026-05-06 22:54 36.48456 -77.66768 4035 ft 98 kts 220°
2026-05-06 22:54 36.47908 -77.67318 4034 ft 98 kts 220°
2026-05-06 22:55 36.47509 -77.67718 4034 ft 98 kts 220°
2026-05-06 22:55 36.46843 -77.68386 4034 ft 98 kts 220°
2026-05-06 22:55 36.46281 -77.68948 4034 ft 98 kts 220°
2026-05-06 22:55 36.45669 -77.69562 4034 ft 98 kts 220°
2026-05-06 22:56 36.44991 -77.70226 4034 ft 98 kts 220°
2026-05-06 22:56 36.44412 -77.70784 4034 ft 98 kts 220°
2026-05-06 22:56 36.43842 -77.71331 4034 ft 98 kts 219°
2026-05-06 22:56 36.43290 -77.71860 4034 ft 98 kts 219°
2026-05-06 22:57 36.42573 -77.72547 4034 ft 98 kts 219°
2026-05-06 22:57 36.41826 -77.73262 4034 ft 98 kts 219°
2026-05-06 22:57 36.41205 -77.73857 4034 ft 98 kts 219°
2026-05-06 22:57 36.40797 -77.74247 4034 ft 98 kts 219°
2026-05-06 22:58 36.40339 -77.74686 4034 ft 98 kts 219°
2026-05-06 22:58 36.39812 -77.75189 4033 ft 98 kts 219°
2026-05-06 22:58 36.39207 -77.75768 4005 ft 100 kts 219°
2026-05-06 22:58 36.38465 -77.76479 3988 ft 100 kts 219°
2026-05-06 22:59 36.37712 -77.77200 3991 ft 99 kts 219°
2026-05-06 22:59 36.36973 -77.77934 3990 ft 99 kts 225°
2026-05-06 22:59 36.36396 -77.78806 3992 ft 98 kts 232°
2026-05-06 22:59 36.35791 -77.79707 3993 ft 98 kts 229°
2026-05-06 23:00 36.35199 -77.80533 3993 ft 98 kts 229°
2026-05-06 23:00 36.34604 -77.81360 3992 ft 98 kts 230°
2026-05-06 23:00 36.34293 -77.81843 3992 ft 98 kts 232°
2026-05-06 23:00 36.33964 -77.82369 3992 ft 98 kts 232°
2026-05-06 23:01 36.33460 -77.83219 3992 ft 98 kts 235°
2026-05-06 23:01 36.32988 -77.84117 3992 ft 98 kts 236°
2026-05-06 23:01 36.32552 -77.84956 3991 ft 98 kts 237°
2026-05-06 23:01 36.32130 -77.85768 3991 ft 98 kts 237°
2026-05-06 23:02 36.31897 -77.86223 3991 ft 98 kts 237°
2026-05-06 23:02 36.31524 -77.86980 3990 ft 98 kts 238°
2026-05-06 23:02 36.31107 -77.87853 3990 ft 98 kts 238°
2026-05-06 23:02 36.30873 -77.88345 3991 ft 98 kts 238°
2026-05-06 23:03 36.30608 -77.88905 3991 ft 98 kts 238°
2026-05-06 23:03 36.30271 -77.89614 3991 ft 98 kts 238°
2026-05-06 23:03 36.29935 -77.90324 3991 ft 98 kts 238°
2026-05-06 23:03 36.29535 -77.91232 3990 ft 98 kts 245°
2026-05-06 23:04 36.29214 -77.92220 3991 ft 98 kts 245°
2026-05-06 23:04 36.28894 -77.93184 3991 ft 98 kts 245°
2026-05-06 23:04 36.28684 -77.93796 3991 ft 98 kts 245°
2026-05-06 23:04 36.28415 -77.94574 3992 ft 97 kts 244°
2026-05-06 23:05 36.28123 -77.95421 3991 ft 98 kts 244°
2026-05-06 23:05 36.27908 -77.96049 3992 ft 98 kts 244°
2026-05-06 23:05 36.27610 -77.96922 3992 ft 98 kts 245°
2026-05-06 23:05 36.27351 -77.97683 3992 ft 99 kts 244°
2026-05-06 23:06 36.27145 -77.98287 3993 ft 99 kts 245°
2026-05-06 23:06 36.26906 -77.98992 3992 ft 99 kts 244°
2026-05-06 23:06 36.26657 -77.99731 3993 ft 98 kts 245°
2026-05-06 23:06 36.26477 -78.00261 3993 ft 99 kts 245°
2026-05-06 23:07 36.26170 -78.01171 3990 ft 99 kts 244°
2026-05-06 23:07 36.25832 -78.02171 3845 ft 103 kts 244°
2026-05-06 23:07 36.25508 -78.03142 3722 ft 102 kts 245°
2026-05-06 23:07 36.25298 -78.03767 3644 ft 102 kts 245°
2026-05-06 23:08 36.25015 -78.04603 3537 ft 102 kts 244°
2026-05-06 23:08 36.24686 -78.05594 3390 ft 97 kts 245°
2026-05-06 23:08 36.24514 -78.06110 3301 ft 95 kts 245°
2026-05-06 23:08 36.24341 -78.06628 3210 ft 93 kts 245°
2026-05-06 23:09 36.24199 -78.07056 3135 ft 92 kts 245°
2026-05-06 23:09 36.23995 -78.07671 3027 ft 91 kts 245°
2026-05-06 23:09 36.23688 -78.08588 2887 ft 91 kts 244°
2026-05-06 23:09 36.23391 -78.09443 2766 ft 91 kts 244°
2026-05-06 23:10 36.23179 -78.10042 2684 ft 92 kts 244°
2026-05-06 23:10 36.22854 -78.10947 2655 ft 96 kts 244°
2026-05-06 23:10 36.22597 -78.11655 2655 ft 97 kts 243°
2026-05-06 23:10 36.22188 -78.12624 2658 ft 97 kts 241°
2026-05-06 23:11 36.21803 -78.13597 2659 ft 98 kts 243°
2026-05-06 23:11 36.21430 -78.14610 2660 ft 98 kts 244°
2026-05-06 23:11 36.20963 -78.15489 2678 ft 97 kts 219°
2026-05-06 23:11 36.20285 -78.16136 2710 ft 97 kts 219°
2026-05-06 23:12 36.19622 -78.16740 2723 ft 97 kts 218°
2026-05-06 23:12 36.18993 -78.17354 2727 ft 98 kts 220°
2026-05-06 23:12 36.18342 -78.17995 2728 ft 99 kts 219°
2026-05-06 23:12 36.17683 -78.18636 2768 ft 97 kts 219°
2026-05-06 23:13 36.17026 -78.19214 2819 ft 96 kts 218°
2026-05-06 23:13 36.16377 -78.19820 2776 ft 100 kts 221°
2026-05-06 23:13 36.15748 -78.20444 2779 ft 100 kts 218°
2026-05-06 23:13 36.15075 -78.21053 2698 ft 106 kts 218°
2026-05-06 23:14 36.14397 -78.21690 2667 ft 106 kts 218°
2026-05-06 23:14 36.13687 -78.22355 2633 ft 106 kts 220°
2026-05-06 23:14 36.13021 -78.22998 2709 ft 101 kts 214°
2026-05-06 23:14 36.12343 -78.23604 2683 ft 103 kts 221°
2026-05-06 23:15 36.11686 -78.24234 2587 ft 100 kts 220°
2026-05-06 23:15 36.11258 -78.24633 2453 ft 101 kts 217°
2026-05-06 23:15 36.10765 -78.25067 2387 ft 96 kts 218°
2026-05-06 23:15 36.10185 -78.25581 2146 ft 102 kts 218°
2026-05-06 23:16 36.09561 -78.26167 1960 ft 103 kts 218°
2026-05-06 23:16 36.08936 -78.26835 1856 ft 97 kts 221°
2026-05-06 23:16 36.08351 -78.27449 1702 ft 98 kts 230°
2026-05-06 23:16 36.07628 -78.28011 1551 ft 100 kts 212°
2026-05-06 23:17 36.06980 -78.28698 1445 ft 98 kts 222°
2026-05-06 23:17 36.06333 -78.29307 1332 ft 98 kts 211°
2026-05-06 23:17 36.05667 -78.29846 1143 ft 96 kts 225°
2026-05-06 23:17 36.05090 -78.30478 1020 ft 94 kts 213°
2026-05-06 23:18 36.04524 -78.30975 936 ft 91 kts 231°
2026-05-06 23:18 36.03912 -78.31576 760 ft 95 kts 213°
2026-05-06 23:18 36.03353 -78.32072 576 ft 85 kts 221°
2026-05-06 23:18 36.02974 -78.32424 452 ft 67 kts 217°
2026-05-06 23:19 36.02690 -78.32697 373 ft 46 kts 219°
2026-05-06 23:19 36.02505 -78.32873 373 ft 28 kts 219°
2026-05-06 23:19 36.02408 -78.32978 373 ft 14 kts 258°
2026-05-06 23:19 36.02434 -78.33041 373 ft 0 kts 307°
2026-05-06 23:20 36.02438 -78.33048 373 ft 0 kts 304°
2026-05-06 23:21 36.02441 -78.33052 373 ft 4 kts 306°
2026-05-06 23:21 36.02460 -78.33099 373 ft 3 kts 212°
2026-05-06 23:21 36.02434 -78.33120 373 ft 0 kts 218°
2026-05-06 23:24 36.02424 -78.33127 373 ft 2 kts 177°
2026-05-06 23:25 36.02431 -78.33076 373 ft 16 kts 32°
2026-05-06 23:25 36.02482 -78.33044 373 ft 0 kts 55°
2026-05-06 23:25 36.02483 -78.33041 373 ft 0 kts 53°
2026-05-06 23:25 36.02524 -78.32993 373 ft 20 kts 37°
2026-05-06 23:26 36.02662 -78.32856 373 ft 27 kts 37°
2026-05-06 23:26 36.02765 -78.32758 373 ft 25 kts 38°
2026-05-06 23:26 36.02905 -78.32626 373 ft 27 kts 38°
2026-05-06 23:26 36.02977 -78.32540 373 ft 0 kts 100°
2026-05-06 23:28 36.02948 -78.32493 373 ft 17 kts 133°
2026-05-06 23:29 36.02866 -78.32527 373 ft 27 kts 218°
2026-05-06 23:29 36.02584 -78.32794 379 ft 75 kts 217°
2026-05-06 23:29 36.02214 -78.33164 576 ft 75 kts 219°
2026-05-06 23:29 36.01935 -78.33443 724 ft 77 kts 220°
2026-05-06 23:30 36.01698 -78.33683 823 ft 80 kts 214°
2026-05-06 23:30 36.01249 -78.33862 1007 ft 81 kts 187°
2026-05-06 23:30 36.00783 -78.33756 1167 ft 85 kts 167°
2026-05-06 23:30 36.00229 -78.33665 1277 ft 92 kts 184°
2026-05-06 23:31 35.99668 -78.33476 1513 ft 87 kts 160°
2026-05-06 23:31 35.99233 -78.33272 1645 ft 89 kts 167°
2026-05-06 23:31 35.98787 -78.33122 1775 ft 90 kts 169°
2026-05-06 23:31 35.98312 -78.32969 1911 ft 91 kts 169°
2026-05-06 23:32 35.97899 -78.32835 2028 ft 92 kts 169°
2026-05-06 23:32 35.97393 -78.32669 2169 ft 92 kts 169°
2026-05-06 23:32 35.96823 -78.32480 2329 ft 93 kts 169°
2026-05-06 23:32 35.96234 -78.32280 2493 ft 92 kts 169°
2026-05-06 23:33 35.95666 -78.32085 2651 ft 92 kts 169°
2026-05-06 23:33 35.95225 -78.31940 2774 ft 92 kts 170°
2026-05-06 23:33 35.94928 -78.31841 2858 ft 92 kts 170°
2026-05-06 23:33 35.94615 -78.31737 2945 ft 91 kts 170°
2026-05-06 23:34 35.94098 -78.31562 3066 ft 93 kts 170°
2026-05-06 23:34 35.93540 -78.31374 3177 ft 95 kts 170°
2026-05-06 23:34 35.92984 -78.31184 3285 ft 97 kts 170°
2026-05-06 23:34 35.92457 -78.31005 3385 ft 98 kts 170°
2026-05-06 23:35 35.91730 -78.30755 3476 ft 101 kts 170°
2026-05-06 23:35 35.90868 -78.30465 3465 ft 104 kts 171°
2026-05-06 23:35 35.90199 -78.30265 3464 ft 105 kts 172°
2026-05-06 23:35 35.89731 -78.30128 3464 ft 105 kts 172°
2026-05-06 23:36 35.89274 -78.29997 3464 ft 106 kts 172°
2026-05-06 23:36 35.88734 -78.29841 3464 ft 106 kts 172°
2026-05-06 23:36 35.87993 -78.29627 3464 ft 106 kts 172°
2026-05-06 23:36 35.87315 -78.29432 3464 ft 107 kts 172°
2026-05-06 23:37 35.86546 -78.29211 3464 ft 107 kts 172°
2026-05-06 23:37 35.86029 -78.29062 3464 ft 107 kts 172°
2026-05-06 23:37 35.85526 -78.28917 3464 ft 107 kts 172°
2026-05-06 23:37 35.84860 -78.28722 3464 ft 107 kts 171°
2026-05-06 23:38 35.84031 -78.28414 3464 ft 108 kts 168°
2026-05-06 23:38 35.83155 -78.28078 3463 ft 108 kts 168°
2026-05-06 23:38 35.82538 -78.27840 3463 ft 108 kts 168°
2026-05-06 23:38 35.82162 -78.27693 3462 ft 108 kts 168°
2026-05-06 23:39 35.81746 -78.27531 3461 ft 108 kts 168°
2026-05-06 23:39 35.81237 -78.27330 3460 ft 108 kts 168°
2026-05-06 23:39 35.80610 -78.27080 3459 ft 107 kts 168°
2026-05-06 23:39 35.80077 -78.26868 3458 ft 107 kts 168°
2026-05-06 23:40 35.79517 -78.26645 3457 ft 107 kts 168°
2026-05-06 23:40 35.78837 -78.26370 3456 ft 107 kts 168°
2026-05-06 23:40 35.77863 -78.26028 3454 ft 105 kts 175°
2026-05-06 23:40 35.76901 -78.25817 3453 ft 105 kts 175°
2026-05-06 23:41 35.76073 -78.25594 3451 ft 105 kts 174°
2026-05-06 23:41 35.75177 -78.25343 3449 ft 105 kts 174°
2026-05-06 23:41 35.74204 -78.25071 3450 ft 104 kts 174°
2026-05-06 23:41 35.73264 -78.24801 3448 ft 104 kts 174°
2026-05-06 23:42 35.72655 -78.24624 3446 ft 104 kts 173°
2026-05-06 23:42 35.71828 -78.24389 3446 ft 103 kts 174°
2026-05-06 23:42 35.70998 -78.24152 3443 ft 104 kts 174°
2026-05-06 23:42 35.70015 -78.23865 3439 ft 105 kts 173°
2026-05-06 23:43 35.69337 -78.23642 3442 ft 105 kts 172°
2026-05-06 23:43 35.68674 -78.23427 3442 ft 105 kts 173°
2026-05-06 23:43 35.67841 -78.23143 3437 ft 105 kts 172°
2026-05-06 23:43 35.67005 -78.22837 3437 ft 105 kts 171°
2026-05-06 23:44 35.66430 -78.22632 3439 ft 104 kts 172°
2026-05-06 23:44 35.65737 -78.22393 3439 ft 104 kts 173°
2026-05-06 23:44 35.65029 -78.22147 3437 ft 104 kts 171°
2026-05-06 23:44 35.64503 -78.21969 3440 ft 104 kts 173°
2026-05-06 23:45 35.63901 -78.21753 3435 ft 104 kts 172°
2026-05-06 23:45 35.62943 -78.21442 3434 ft 104 kts 173°
2026-05-06 23:45 35.61991 -78.21137 3437 ft 103 kts 173°
2026-05-06 23:45 35.61040 -78.20812 3438 ft 103 kts 172°
2026-05-06 23:46 35.60186 -78.20532 3442 ft 103 kts 174°
2026-05-06 23:46 35.59216 -78.20209 3440 ft 103 kts 173°
2026-05-06 23:46 35.58543 -78.19981 3439 ft 103 kts 172°
2026-05-06 23:46 35.57681 -78.19692 3441 ft 103 kts 172°
2026-05-06 23:47 35.56844 -78.19418 3439 ft 103 kts 172°
2026-05-06 23:47 35.55915 -78.19115 3446 ft 103 kts 173°
2026-05-06 23:47 35.54960 -78.18798 3444 ft 103 kts 172°
2026-05-06 23:47 35.54001 -78.18476 3443 ft 103 kts 173°
2026-05-06 23:48 35.53183 -78.18207 3446 ft 103 kts 173°
2026-05-06 23:48 35.52703 -78.18050 3452 ft 103 kts 172°
2026-05-06 23:48 35.52063 -78.17842 3450 ft 103 kts 173°
2026-05-06 23:48 35.51385 -78.17615 3448 ft 104 kts 169°
2026-05-06 23:49 35.50664 -78.17306 3449 ft 104 kts 168°
2026-05-06 23:49 35.49905 -78.16955 3452 ft 105 kts 168°
2026-05-06 23:49 35.49226 -78.16644 3453 ft 105 kts 167°
2026-05-06 23:49 35.48536 -78.16320 3447 ft 105 kts 167°
2026-05-06 23:50 35.47947 -78.16047 3450 ft 105 kts 168°
2026-05-06 23:50 35.46645 -78.15455 3445 ft 103 kts 175°
2026-05-06 23:50 35.45976 -78.15368 3453 ft 101 kts 179°
2026-05-06 23:51 35.45452 -78.15262 3452 ft 102 kts 178°
2026-05-06 23:51 35.44965 -78.15163 3453 ft 102 kts 178°
2026-05-06 23:51 35.44373 -78.15034 3448 ft 102 kts 177°
2026-05-06 23:51 35.43870 -78.14927 3442 ft 103 kts 177°
2026-05-06 23:52 35.43369 -78.14819 3443 ft 103 kts 177°
2026-05-06 23:52 35.42896 -78.14713 3446 ft 102 kts 177°